TimeEDT,TemperatureF,Dew PointF,Humidity,Sea Level PressureIn,VisibilityMPH,Wind Direction,Wind SpeedMPH,Gust SpeedMPH,PrecipitationIn,Events,Conditions,WindDirDegrees,DateUTC
12:14 AM,38.5,31.3,75,30.07,10.0,Calm,Calm,-,N/A,,Mostly Cloudy,0,2013-03-10 05:14:00
12:34 AM,38.3,31.6,77,30.06,10.0,Calm,Calm,-,N/A,,Scattered Clouds,0,2013-03-10 05:34:00
12:54 AM,38.3,31.6,77,30.06,10.0,Calm,Calm,-,N/A,,Clear,0,2013-03-10 05:54:00
1:15 AM,38.1,32.0,79,30.05,10.0,Calm,Calm,-,N/A,,Scattered Clouds,0,2013-03-10 06:15:00
1:34 AM,37.9,32.0,79,30.05,10.0,Calm,Calm,-,N/A,,Scattered Clouds,0,2013-03-10 06:34:00
1:54 AM,37.9,32.0,79,30.05,10.0,Calm,Calm,-,N/A,,Clear,0,2013-03-10 06:54:00
3:15 AM,37.9,32.0,79,30.04,10.0,Calm,Calm,-,N/A,,Scattered Clouds,0,2013-03-10 07:15:00
3:34 AM,37.4,32.0,81,30.03,10.0,Calm,Calm,-,N/A,,Clear,0,2013-03-10 07:34:00
3:54 AM,36.9,31.8,82,30.02,10.0,Calm,Calm,-,N/A,,Scattered Clouds,0,2013-03-10 07:54:00
4:14 AM,37.0,32.0,82,30.02,10.0,Calm,Calm,-,N/A,,Clear,0,2013-03-10 08:14:00
4:34 AM,36.9,32.0,83,30.01,10.0,Calm,Calm,-,N/A,,Mostly Cloudy,0,2013-03-10 08:34:00
4:54 AM,36.9,32.0,83,30.00,10.0,ENE,3.5,-,N/A,,Scattered Clouds,60,2013-03-10 08:54:00
5:14 AM,36.5,32.0,84,30.00,10.0,NE,3.5,-,N/A,,Clear,50,2013-03-10 09:14:00
5:35 AM,36.0,31.6,84,30.00,10.0,Calm,Calm,-,N/A,,Clear,0,2013-03-10 09:35:00
5:54 AM,35.8,31.8,86,30.00,10.0,Calm,Calm,-,N/A,,Mostly Cloudy,0,2013-03-10 09:54:00
6:14 AM,35.6,32.0,87,30.00,10.0,Calm,Calm,-,N/A,,Scattered Clouds,0,2013-03-10 10:14:00
6:34 AM,35.8,31.8,86,29.99,10.0,Calm,Calm,-,N/A,,Mostly Cloudy,0,2013-03-10 10:34:00
6:54 AM,36.7,32.0,83,29.99,10.0,Calm,Calm,-,N/A,,Overcast,0,2013-03-10 10:54:00
7:14 AM,37.4,32.0,81,29.99,10.0,Calm,Calm,-,N/A,,Overcast,0,2013-03-10 11:14:00
7:34 AM,37.8,32.4,81,29.99,10.0,Calm,Calm,-,N/A,,Overcast,0,2013-03-10 11:34:00
8:34 AM,40.1,34.0,79,30.00,10.0,SW,3.5,-,N/A,,Scattered Clouds,230,2013-03-10 12:34:00
8:55 AM,42.6,32.7,68,30.00,10.0,Calm,Calm,-,N/A,,Scattered Clouds,0,2013-03-10 12:55:00
9:14 AM,43.7,33.1,66,30.00,10.0,SW,3.5,-,N/A,,Mostly Cloudy,230,2013-03-10 13:14:00
9:34 AM,44.8,33.3,64,30.00,10.0,SW,4.6,-,N/A,,Mostly Cloudy,220,2013-03-10 13:34:00
9:55 AM,45.5,33.3,62,30.00,10.0,Calm,Calm,-,N/A,,Overcast,0,2013-03-10 13:55:00
10:14 AM,46.8,33.6,60,29.99,10.0,Calm,Calm,-,N/A,,Scattered Clouds,0,2013-03-10 14:14:00
10:34 AM,49.1,34.0,56,29.97,10.0,Calm,Calm,-,N/A,,Mostly Cloudy,0,2013-03-10 14:34:00
10:55 AM,53.1,33.4,47,29.95,10.0,South,8.1,-,N/A,,Scattered Clouds,170,2013-03-10 14:55:00
11:14 AM,55.4,33.1,43,29.97,10.0,South,11.5,17.3,N/A,,Clear,190,2013-03-10 15:14:00
11:34 AM,57.4,32.9,40,29.95,10.0,South,11.5,18.4,N/A,,Clear,190,2013-03-10 15:34:00
11:54 AM,57.9,32.7,39,29.95,10.0,SSW,13.8,20.7,N/A,,Clear,200,2013-03-10 15:54:00
12:14 PM,59.0,33.1,38,29.95,10.0,SSW,13.8,21.9,N/A,,Clear,200,2013-03-10 16:14:00
12:34 PM,59.5,33.6,38,29.95,10.0,SSW,10.4,19.6,N/A,,Clear,200,2013-03-10 16:34:00
12:55 PM,59.5,33.8,38,29.94,10.0,South,10.4,20.7,N/A,,Clear,190,2013-03-10 16:55:00
1:34 PM,61.7,34.0,35,29.94,10.0,South,12.7,20.7,N/A,,Clear,190,2013-03-10 17:34:00
1:54 PM,62.1,33.8,35,29.93,10.0,South,16.1,20.7,N/A,,Clear,190,2013-03-10 17:54:00
2:14 PM,62.4,34.7,36,29.93,10.0,SSW,13.8,18.4,N/A,,Clear,200,2013-03-10 18:14:00
2:35 PM,62.8,35.1,36,29.91,10.0,SSW,11.5,18.4,N/A,,Clear,200,2013-03-10 18:35:00
2:54 PM,63.7,36.1,36,29.91,10.0,SSW,11.5,19.6,N/A,,Clear,210,2013-03-10 18:54:00
3:14 PM,63.1,36.7,37,29.91,10.0,SSW,11.5,19.6,N/A,,Clear,210,2013-03-10 19:14:00
3:35 PM,62.8,38.3,40,29.92,10.0,SW,12.7,21.9,N/A,,Scattered Clouds,220,2013-03-10 19:35:00
3:54 PM,62.6,40.1,44,29.92,10.0,SSW,11.5,17.3,N/A,,Overcast,200,2013-03-10 19:54:00
4:14 PM,62.6,39.4,42,29.92,10.0,SW,8.1,-,N/A,,Overcast,220,2013-03-10 20:14:00
4:34 PM,62.1,40.6,45,29.92,10.0,WSW,6.9,-,N/A,,Overcast,240,2013-03-10 20:34:00
4:54 PM,62.1,40.6,45,29.91,10.0,SW,4.6,-,N/A,,Overcast,220,2013-03-10 20:54:00
5:15 PM,63.7,41.0,43,29.89,10.0,South,6.9,-,N/A,,Overcast,190,2013-03-10 21:15:00
5:34 PM,63.9,41.0,43,29.89,10.0,South,6.9,-,N/A,,Mostly Cloudy,180,2013-03-10 21:34:00
5:54 PM,63.5,41.9,45,29.89,10.0,SSE,8.1,-,N/A,,Scattered Clouds,160,2013-03-10 21:54:00
6:14 PM,62.8,41.7,46,29.90,10.0,South,6.9,-,N/A,,Mostly Cloudy,170,2013-03-10 22:14:00
6:34 PM,61.9,41.2,47,29.89,10.0,South,8.1,-,N/A,,Scattered Clouds,170,2013-03-10 22:34:00
6:54 PM,60.8,40.1,46,29.90,10.0,South,10.4,-,N/A,,Clear,170,2013-03-10 22:54:00
7:14 PM,59.5,39.2,47,29.89,10.0,SSE,9.2,-,N/A,,Clear,160,2013-03-10 23:14:00
7:35 PM,58.5,39.4,49,29.89,10.0,SSE,6.9,-,N/A,,Clear,160,2013-03-10 23:35:00
7:54 PM,58.1,38.8,49,29.88,10.0,SSE,6.9,-,N/A,,Clear,150,2013-03-10 23:54:00
8:14 PM,57.7,37.6,47,29.87,10.0,SSE,8.1,-,N/A,,Clear,160,2013-03-11 00:14:00
8:35 PM,57.2,37.0,47,29.89,10.0,South,5.8,-,N/A,,Clear,180,2013-03-11 00:35:00
8:54 PM,57.2,36.5,46,29.88,10.0,South,4.6,-,N/A,,Clear,180,2013-03-11 00:54:00
9:14 PM,55.9,36.1,47,29.88,10.0,South,4.6,-,N/A,,Clear,170,2013-03-11 01:14:00
9:34 PM,56.7,35.6,45,29.88,10.0,South,5.8,-,N/A,,Clear,180,2013-03-11 01:34:00
10:15 PM,55.8,34.9,45,29.87,10.0,SSW,4.6,-,N/A,,Clear,200,2013-03-11 02:15:00
10:34 PM,55.4,34.9,46,29.87,10.0,Calm,Calm,-,N/A,,Scattered Clouds,0,2013-03-11 02:34:00
10:54 PM,53.4,35.6,51,29.86,10.0,Calm,Calm,-,N/A,,Mostly Cloudy,0,2013-03-11 02:54:00
11:15 PM,54.3,35.4,49,29.83,10.0,Calm,Calm,-,N/A,,Scattered Clouds,0,2013-03-11 03:15:00
11:34 PM,54.0,35.4,50,29.83,10.0,Calm,Calm,-,N/A,,Scattered Clouds,0,2013-03-11 03:34:00
11:54 PM,52.9,35.6,52,29.83,10.0,Calm,Calm,-,N/A,,Mostly Cloudy,0,2013-03-11 03:54:00
12:14 AM,51.1,36.0,56,29.82,10.0,Calm,Calm,-,N/A,,Mostly Cloudy,0,2013-03-11 04:14:00
12:34 AM,53.1,35.1,50,29.84,10.0,South,5.8,-,N/A,,Overcast,180,2013-03-11 04:34:00